Santee, CA

2:46 AM PST on February 12, 2016 (GMT -0800)
Gillespie

Weather History for KSEE - October, 2014

Change the Weather History Date:

Tuesday, October 7, 2014

  Actual Average Record
Temperature  
Mean Temperature 81 °F -  
Max Temperature 96 °F 80 °F 102 °F (2008)
Min Temperature 64 °F 54 °F 44 °F (2007)
Cooling Degree Days 16    
Growing Degree Days 31 (Base 50)    
Moisture  
Dew Point 40 °F    
Average Humidity 29    
Maximum Humidity 49    
Minimum Humidity 10    
Precipitation  
Precipitation 0.00 in - - ()
Sea Level Pressure  
Sea Level Pressure 29.89 in    
Wind  
Wind Speed 2 mph (WSW)    
Max Wind Speed 10 mph    
Max Gust Speed -    
Visibility 9 miles    
Events      
Averages and records for this station are not official NWS values.
T = Trace of Precipitation, MM = Missing Value Source: NWS Daily Summary

Daily Weather History Graph

Daily Weather History Graph

Search for Another Location

Airport or City:

Trip Planner

Search our weather history database for the weather conditions in past years. The results will help you decide how hot, cold, wet, or windy it might be!

Date:

Astronomy

Oct. 07, 2014 Rise Set
Actual Time 6:46 AM PDT 6:24 PM PDT
Civil Twilight 6:21 AM PDT 6:49 PM PDT
Nautical Twilight 5:52 AM PDT 7:17 PM PDT
Astronomical Twilight 5:24 AM PDT 7:46 PM PDT
Moon 6:02 PM PDT (10/7) 5:50 AM PDT (10/7)
Length of Visible Light 12h 27m
Length of Day
11h 38m
Waxing Gibbous, 99% of the Moon is Illuminated
Oct 7
Waxing Gibbous
Oct 8
Full
Oct 15
Last Quarter
Oct 23
New
Oct 30
First Quarter

Hourly Weather History & Observations

Time (PDT) Temp. Dew Point Humidity Pressure Visibility Wind Dir Wind Speed Gust Speed Precip Events Conditions
12:15 AM 69.8 °F 33.8 °F 27% 29.91 in 10.0 mi WNW 3.5 mph - N/A   Clear
12:35 AM 69.8 °F 35.6 °F 28% 29.91 in 10.0 mi WNW 3.5 mph - N/A   Clear
12:55 AM 68.0 °F 35.6 °F 30% 29.91 in 10.0 mi Calm Calm - N/A   Clear
1:15 AM 68.0 °F 35.6 °F 30% 29.91 in 10.0 mi Calm Calm - N/A   Clear
1:35 AM 68.0 °F 37.4 °F 33% 29.91 in 10.0 mi Calm Calm - N/A   Clear
1:55 AM 68.0 °F 37.4 °F 33% 29.91 in 10.0 mi Calm Calm - N/A   Clear
2:15 AM 66.2 °F 37.4 °F 35% 29.91 in 10.0 mi NW 3.5 mph - N/A   Clear
2:35 AM 66.2 °F 37.4 °F 35% 29.90 in 10.0 mi West 5.8 mph - N/A   Clear
2:55 AM 66.2 °F 37.4 °F 35% 29.90 in 10.0 mi WNW 4.6 mph - N/A   Clear
3:15 AM 66.2 °F 37.4 °F 35% 29.90 in 10.0 mi Calm Calm - N/A   Clear
3:35 AM 68.0 °F 37.4 °F 33% 29.89 in 10.0 mi Calm Calm - N/A   Clear
3:55 AM 68.0 °F 39.2 °F 35% 29.89 in 10.0 mi Calm Calm - N/A   Clear
4:15 AM 68.0 °F 39.2 °F 35% 29.89 in 10.0 mi Calm Calm - N/A   Partly Cloudy
4:35 AM 68.0 °F 39.2 °F 35% 29.88 in 10.0 mi Calm Calm - N/A   Partly Cloudy
4:55 AM 68.0 °F 39.2 °F 35% 29.88 in 10.0 mi Calm Calm - N/A   Partly Cloudy
5:15 AM 69.8 °F 39.2 °F 33% 29.89 in 10.0 mi Calm Calm - N/A   Partly Cloudy
5:35 AM 69.8 °F 37.4 °F 31% 29.89 in 10.0 mi Calm Calm - N/A   Clear
5:55 AM 69.8 °F 37.4 °F 31% 29.89 in 10.0 mi Calm Calm - N/A   Clear
6:15 AM 69.8 °F 39.2 °F 33% 29.90 in 10.0 mi Calm Calm - N/A   Partly Cloudy
6:35 AM 69.8 °F 42.8 °F 38% 29.90 in 10.0 mi Calm Calm - N/A   Clear
6:55 AM 69.8 °F 41.0 °F 35% 29.91 in 10.0 mi Calm Calm - N/A   Clear
7:15 AM 69.8 °F 41.0 °F 35% 29.91 in 10.0 mi Calm Calm - N/A   Scattered Clouds
7:35 AM 69.8 °F 42.8 °F 38% 29.92 in 10.0 mi Calm Calm - N/A   Scattered Clouds
7:47 AM 69.8 °F 42.8 °F 38% 29.91 in 25.0 mi Calm Calm - N/A   Overcast
7:55 AM 69.8 °F 41.0 °F 35% 29.92 in 10.0 mi Calm Calm - N/A   Scattered Clouds
8:15 AM 71.6 °F 41.0 °F 33% 29.93 in 10.0 mi Calm Calm - N/A   Light Drizzle
8:35 AM 71.6 °F 42.8 °F 35% 29.93 in 9.0 mi West 4.6 mph - N/A   Partly Cloudy
8:55 AM 73.4 °F 42.8 °F 33% 29.93 in 10.0 mi Calm Calm - N/A   Clear
9:15 AM 73.4 °F 41.0 °F 31% 29.92 in 2.5 mi Calm Calm - N/A   Haze
9:35 AM 75.2 °F 39.2 °F 27% 29.92 in 1.2 mi West 4.6 mph - N/A   Haze
9:55 AM 78.8 °F 39.2 °F 24% 29.92 in 1.0 mi Calm Calm - N/A   Haze
10:15 AM 78.8 °F 39.2 °F 24% 29.92 in 0.8 mi Calm Calm - N/A   Haze
10:35 AM 80.6 °F 39.2 °F 23% 29.92 in 1.0 mi Calm Calm - N/A   Haze
10:55 AM 80.6 °F 39.2 °F 23% 29.93 in 6.0 mi Calm Calm - N/A   Haze
11:15 AM 82.4 °F 39.2 °F 21% 29.93 in 10.0 mi SE 8.1 mph - N/A   Clear
11:35 AM 82.4 °F 39.2 °F 21% 29.92 in 10.0 mi Calm Calm - N/A   Partly Cloudy
11:55 AM 84.2 °F 41.0 °F 22% 29.91 in 10.0 mi SSE 3.5 mph - N/A   Partly Cloudy
12:15 PM 87.8 °F 37.4 °F 17% 29.90 in 10.0 mi Calm Calm - N/A   Partly Cloudy
12:35 PM 89.6 °F 39.2 °F 17% 29.89 in 10.0 mi Calm Calm - N/A   Partly Cloudy
12:55 PM 91.4 °F 32.0 °F 12% 29.88 in 10.0 mi Calm Calm - N/A   Partly Cloudy
1:15 PM 93.2 °F 30.2 °F 11% 29.87 in 10.0 mi NNW 3.5 mph - N/A   Partly Cloudy
1:35 PM 93.2 °F 30.2 °F 11% 29.86 in 10.0 mi Calm Calm - N/A   Clear
1:55 PM 95.0 °F 30.2 °F 10% 29.85 in 10.0 mi South 3.5 mph - N/A   Clear
2:15 PM 96.8 °F 30.2 °F 10% 29.84 in 10.0 mi South 3.5 mph - N/A   Clear
2:35 PM 93.2 °F 35.6 °F 13% 29.85 in 10.0 mi WSW 9.2 mph - N/A   Clear
2:47 PM 91.4 °F 35.6 °F 14% 29.84 in 25.0 mi West 9.2 mph - N/A   Mostly Cloudy
2:55 PM 91.4 °F 33.8 °F 13% 29.85 in 10.0 mi WSW 8.1 mph - N/A   Clear
3:15 PM 91.4 °F 33.8 °F 13% 29.84 in 10.0 mi West 9.2 mph - N/A   Clear
3:35 PM 91.4 °F 32.0 °F 12% 29.84 in 10.0 mi WNW 9.2 mph - N/A   Clear
3:55 PM 91.4 °F 33.8 °F 13% 29.84 in 10.0 mi West 6.9 mph - N/A   Clear
4:15 PM 91.4 °F 32.0 °F 12% 29.84 in 10.0 mi West 8.1 mph - N/A   Clear
4:35 PM 91.4 °F 41.0 °F 17% 29.84 in 10.0 mi SW 6.9 mph - N/A   Clear
4:55 PM 89.6 °F 37.4 °F 16% 29.84 in 10.0 mi SSW 8.1 mph - N/A   Clear
5:15 PM 86.0 °F 51.8 °F 31% 29.84 in 10.0 mi South 10.4 mph - N/A   Clear
5:35 PM 82.4 °F 48.2 °F 30% 29.85 in 10.0 mi SSW 9.2 mph - N/A   Clear
5:47 PM 82.4 °F 50.0 °F 32% 29.84 in 25.0 mi SSW 9.2 mph - N/A   Scattered Clouds
5:55 PM 82.4 °F 44.6 °F 26% 29.85 in 10.0 mi SW 5.8 mph - N/A   Clear
6:15 PM 82.4 °F 41.0 °F 23% 29.86 in 10.0 mi South 4.6 mph - N/A   Clear
6:35 PM 80.6 °F 41.0 °F 24% 29.86 in 10.0 mi Calm Calm - N/A   Clear
6:55 PM 80.6 °F 42.8 °F 26% 29.87 in 10.0 mi Calm Calm - N/A   Clear
7:15 PM 78.8 °F 44.6 °F 30% 29.87 in 10.0 mi South 4.6 mph - N/A   Clear
7:35 PM 78.8 °F 44.6 °F 30% 29.88 in 10.0 mi Calm Calm - N/A   Clear
7:55 PM 75.2 °F 44.6 °F 34% 29.89 in 10.0 mi Calm Calm - N/A   Clear
8:15 PM 75.2 °F 44.6 °F 34% 29.89 in 10.0 mi Calm Calm - N/A   Clear
8:35 PM 73.4 °F 44.6 °F 36% 29.89 in 10.0 mi Calm Calm - N/A   Clear
8:55 PM 73.4 °F 44.6 °F 36% 29.89 in 10.0 mi Calm Calm - N/A   Clear
9:15 PM 71.6 °F 44.6 °F 38% 29.89 in 10.0 mi Calm Calm - N/A   Clear
9:35 PM 69.8 °F 42.8 °F 38% 29.89 in 10.0 mi Calm Calm - N/A   Clear
9:55 PM 69.8 °F 42.8 °F 38% 29.89 in 10.0 mi Calm Calm - N/A   Clear
10:15 PM 69.8 °F 42.8 °F 38% 29.89 in 10.0 mi Calm Calm - N/A   Clear
10:35 PM 68.0 °F 42.8 °F 40% 29.89 in 10.0 mi Calm Calm - N/A   Clear
10:55 PM 66.2 °F 42.8 °F 43% 29.89 in 10.0 mi Calm Calm - N/A   Clear
11:15 PM 66.2 °F 42.8 °F 43% 29.88 in 10.0 mi Calm Calm - N/A   Clear
11:35 PM 66.2 °F 44.6 °F 46% 29.88 in 10.0 mi Calm Calm - N/A   Clear
11:55 PM 64.4 °F 44.6 °F 49% 29.88 in 10.0 mi Calm Calm - N/A   Clear